Location: Riverside Cemetery
(38.3047°N, 99.7773°W)
Time: 00:39:38
(UTC+00:00)

Cosmos 1763 Rocket - Pass Details

Date: 19 September 2020
Orbit: 733 x 779 km, 74.0° (Epoch: 23 October)

Event Time Altitude Azimuth Distance (km) Brightness Sun altitude
Exits shadow 10:38:58 11° 183° (S) 2,222 5.7 -21.1°
Maximum altitude 10:43:54 61° 104° (ESE) 882 4.0 -20.2°
Drops below altitude 10° 10:49:07 10° 26° (NNE) 2,335 6.6 -19.3°
Sets 10:51:32 0° 23° (NNE) 3,263 7.4 -18.8°
